Location: *
(51.5000°N, 0.1100°W)
Time: 20:24:17
(UTC+00:00)

EXPRESS MD2 - Pass Details

Date: 25 May 2024
Orbit: 262 x 3328 km, 49.9° (Epoch: 24 June)

Event Time Altitude Azimuth Distance (km) Brightness Sun altitude
Exits shadow 02:37:10 14° 233° (SW) 1,179 4.4 -9.5°
Maximum altitude 02:39:31 49° 159° (SSE) 614 3.4 -9.3°
Drops below altitude 10° 02:44:06 10° 85° (E) 2,239 7.1 -8.8°
Sets 02:47:29 0° 81° (E) 3,665 8.4 -8.5°
